P/2019 V2 ( Groeller )

Japanese version
Home page
Updated on March 8, 2020

---------------------------------------------------------------------

* Profile

Discovery Date November 3, 2019
Magnitude 20.7 mag
Discoverer Hannes Groeller (Mount Lemmon Survey)

* Pictures

* Orbital Elements

Epoch 2020 Nov. 7.0 TT = JDT 2459160.5
T 2020 Oct. 20.22641 TT                                 Bell
q   5.0205221            (2000.0)            P               Q
n   0.04781483     Peri.  336.05227     -0.96559724     -0.25798682
a   7.5178614      Node   189.17981     +0.25912236     -0.94403103
e   0.3321875      Incl.   11.80250     +0.02185332     -0.20554369
P  20.6
From 52 observations 2019 Nov. 3-2020 Feb. 27, mean residual 0".4.

* Magnitudes Graph

        m1 = 9.5 + 5 log d + 10.0 log r

---------------------------------------------------------------------

The orbital elements are published on M.P.E.C. 2020-E26.
The magnitudes graphs are made with Comet for Windows.

---------------------------------------------------------------------

Copyright(C) Seiichi Yoshida (comet@aerith.net). All rights reserved.